Time,TemperatureF,DewpointF,PressureIn,WindDirection,WindDirectionDegrees,WindSpeedMPH,WindSpeedGustMPH,Humidity,HourlyPrecipIn,Conditions,Clouds,dailyrainin,SoftwareType,DateUTC
2013-01-16 00:07:00,31.3,30.0,30.15,South,185,0.0,1.0,95,0.00,,,0.00,weatherlink.com 1.10,2013-01-16 06:07:00,
2013-01-16 00:22:00,31.0,30.0,30.14,South,185,1.0,2.0,95,0.00,,,0.00,weatherlink.com 1.10,2013-01-16 06:22:00,
2013-01-16 00:37:00,30.8,30.0,30.15,South,185,0.0,2.0,95,0.00,,,0.00,weatherlink.com 1.10,2013-01-16 06:37:00,
2013-01-16 00:52:00,30.5,29.0,30.15,South,184,0.0,2.0,95,0.00,,,0.00,weatherlink.com 1.10,2013-01-16 06:52:00,
2013-01-16 01:07:00,30.3,29.0,30.16,South,185,1.0,3.0,95,0.00,,,0.00,weatherlink.com 1.10,2013-01-16 07:07:00,
2013-01-16 01:23:00,30.2,29.0,30.14,South,184,0.0,2.0,95,0.00,,,0.00,weatherlink.com 1.10,2013-01-16 07:23:00,
2013-01-16 01:37:00,30.2,29.0,30.14,South,185,1.0,2.0,95,0.00,,,0.00,weatherlink.com 1.10,2013-01-16 07:37:00,
2013-01-16 01:52:00,29.9,29.0,30.15,South,184,0.0,3.0,95,0.00,,,0.00,weatherlink.com 1.10,2013-01-16 07:52:00,
2013-01-16 02:07:00,29.8,29.0,30.16,South,185,1.0,2.0,95,0.00,,,0.00,weatherlink.com 1.10,2013-01-16 08:07:00,
2013-01-16 02:22:00,29.8,29.0,30.17,South,184,0.0,1.0,95,0.00,,,0.00,weatherlink.com 1.10,2013-01-16 08:22:00,
2013-01-16 02:37:00,29.8,29.0,30.16,South,184,0.0,1.0,95,0.00,,,0.00,weatherlink.com 1.10,2013-01-16 08:37:00,
2013-01-16 02:52:00,29.9,28.0,30.12,South,185,0.0,1.0,94,0.00,,,0.00,weatherlink.com 1.10,2013-01-16 08:52:00,
2013-01-16 03:07:00,29.9,28.0,30.12,South,184,0.0,2.0,94,0.00,,,0.00,weatherlink.com 1.10,2013-01-16 09:07:00,
2013-01-16 03:22:00,29.9,28.0,30.10,South,185,0.0,2.0,94,0.00,,,0.00,weatherlink.com 1.10,2013-01-16 09:22:00,
2013-01-16 03:38:00,30.0,29.0,30.10,South,185,0.0,2.0,94,0.00,,,0.00,weatherlink.com 1.10,2013-01-16 09:38:00,
2013-01-16 03:53:00,30.0,29.0,30.12,South,185,0.0,1.0,94,0.00,,,0.00,weatherlink.com 1.10,2013-01-16 09:53:00,
2013-01-16 04:08:00,30.1,29.0,30.14,South,185,0.0,1.0,94,0.00,,,0.00,weatherlink.com 1.10,2013-01-16 10:08:00,
2013-01-16 04:23:00,30.1,29.0,30.14,South,185,0.0,1.0,95,0.00,,,0.00,weatherlink.com 1.10,2013-01-16 10:23:00,
2013-01-16 04:38:00,30.2,29.0,30.15,South,184,0.0,1.0,95,0.00,,,0.00,weatherlink.com 1.10,2013-01-16 10:38:00,
2013-01-16 04:53:00,30.3,29.0,30.16,South,185,0.0,0.0,95,0.00,,,0.00,weatherlink.com 1.10,2013-01-16 10:53:00,
2013-01-16 05:08:00,30.2,29.0,30.16,South,185,0.0,2.0,94,0.00,,,0.00,weatherlink.com 1.10,2013-01-16 11:08:00,
2013-01-16 05:23:00,30.2,29.0,30.13,South,184,1.0,3.0,94,0.00,,,0.00,weatherlink.com 1.10,2013-01-16 11:23:00,
2013-01-16 05:38:00,30.2,29.0,30.15,South,184,0.0,2.0,95,0.00,,,0.00,weatherlink.com 1.10,2013-01-16 11:38:00,
2013-01-16 05:53:00,30.2,29.0,30.17,South,185,0.0,2.0,94,0.00,,,0.00,weatherlink.com 1.10,2013-01-16 11:53:00,
2013-01-16 06:08:00,30.2,29.0,30.17,South,184,1.0,1.0,94,0.00,,,0.00,weatherlink.com 1.10,2013-01-16 12:08:00,
2013-01-16 06:23:00,30.2,29.0,30.20,South,184,0.0,3.0,94,0.00,,,0.00,weatherlink.com 1.10,2013-01-16 12:23:00,
2013-01-16 06:38:00,30.1,29.0,30.20,South,184,0.0,0.0,94,0.00,,,0.00,weatherlink.com 1.10,2013-01-16 12:38:00,
2013-01-16 06:53:00,30.0,28.0,30.20,South,185,0.0,1.0,93,0.00,,,0.00,weatherlink.com 1.10,2013-01-16 12:53:00,
2013-01-16 07:08:00,30.0,28.0,30.20,South,185,0.0,1.0,93,0.00,,,0.00,weatherlink.com 1.10,2013-01-16 13:08:00,
2013-01-16 07:23:00,30.0,28.0,30.19,South,185,0.0,1.0,93,0.00,,,0.00,weatherlink.com 1.10,2013-01-16 13:23:00,
2013-01-16 07:38:00,30.0,28.0,30.14,South,184,1.0,2.0,93,0.00,,,0.00,weatherlink.com 1.10,2013-01-16 13:38:00,
2013-01-16 07:53:00,30.0,28.0,30.17,South,184,0.0,1.0,93,0.00,,,0.00,weatherlink.com 1.10,2013-01-16 13:53:00,
2013-01-16 08:08:00,30.1,28.0,30.20,South,185,0.0,4.0,93,0.00,,,0.00,weatherlink.com 1.10,2013-01-16 14:08:00,
2013-01-16 08:24:00,30.3,29.0,30.21,South,184,0.0,0.0,93,0.00,,,0.00,weatherlink.com 1.10,2013-01-16 14:24:00,
2013-01-16 08:38:00,30.5,29.0,30.23,South,185,0.0,1.0,92,0.00,,,0.00,weatherlink.com 1.10,2013-01-16 14:38:00,
2013-01-16 08:53:00,30.5,29.0,30.20,South,184,0.0,2.0,92,0.00,,,0.00,weatherlink.com 1.10,2013-01-16 14:53:00,
2013-01-16 09:08:00,30.8,29.0,30.21,South,185,0.0,1.0,92,0.00,,,0.00,weatherlink.com 1.10,2013-01-16 15:08:00,
2013-01-16 09:23:00,31.3,29.0,30.20,South,184,1.0,2.0,92,0.00,,,0.00,weatherlink.com 1.10,2013-01-16 15:23:00,
2013-01-16 09:38:00,31.2,29.0,30.21,South,185,0.0,1.0,91,0.00,,,0.00,weatherlink.com 1.10,2013-01-16 15:38:00,
2013-01-16 09:53:00,31.3,29.0,30.23,South,185,0.0,2.0,91,0.00,,,0.00,weatherlink.com 1.10,2013-01-16 15:53:00,
2013-01-16 10:08:00,31.7,29.0,30.20,South,184,0.0,1.0,91,0.00,,,0.00,weatherlink.com 1.10,2013-01-16 16:08:00,
2013-01-16 10:23:00,31.7,29.0,30.19,South,185,0.0,2.0,91,0.00,,,0.00,weatherlink.com 1.10,2013-01-16 16:23:00,
2013-01-16 10:38:00,31.6,29.0,30.17,South,184,0.0,2.0,91,0.00,,,0.00,weatherlink.com 1.10,2013-01-16 16:38:00,
2013-01-16 10:53:00,31.7,29.0,30.18,South,184,0.0,2.0,91,0.00,,,0.00,weatherlink.com 1.10,2013-01-16 16:53:00,
2013-01-16 11:08:00,31.9,30.0,30.18,South,185,0.0,0.0,91,0.00,,,0.00,weatherlink.com 1.10,2013-01-16 17:08:00,
2013-01-16 11:23:00,32.2,30.0,30.18,South,185,0.0,2.0,91,0.00,,,0.00,weatherlink.com 1.10,2013-01-16 17:23:00,
2013-01-16 11:38:00,32.1,30.0,30.17,South,184,0.0,0.0,91,0.00,,,0.00,weatherlink.com 1.10,2013-01-16 17:38:00,
2013-01-16 11:53:00,32.1,30.0,30.18,South,184,0.0,0.0,91,0.00,,,0.00,weatherlink.com 1.10,2013-01-16 17:53:00,
2013-01-16 12:08:00,32.3,30.0,30.18,South,185,0.0,0.0,91,0.00,,,0.00,weatherlink.com 1.10,2013-01-16 18:08:00,
2013-01-16 12:23:00,32.6,30.0,30.18,South,184,0.0,2.0,90,0.00,,,0.00,weatherlink.com 1.10,2013-01-16 18:23:00,
2013-01-16 12:38:00,32.7,30.0,30.16,South,185,0.0,1.0,91,0.00,,,0.00,weatherlink.com 1.10,2013-01-16 18:38:00,
2013-01-16 12:53:00,32.8,31.0,30.17,South,185,0.0,1.0,91,0.00,,,0.00,weatherlink.com 1.10,2013-01-16 18:53:00,
2013-01-16 13:08:00,32.7,30.0,30.16,South,184,0.0,1.0,90,0.00,,,0.00,weatherlink.com 1.10,2013-01-16 19:08:00,
2013-01-16 13:23:00,32.7,30.0,30.16,South,185,0.0,2.0,90,0.00,,,0.00,weatherlink.com 1.10,2013-01-16 19:23:00,
2013-01-16 13:38:00,32.8,31.0,30.18,South,185,0.0,1.0,91,0.00,,,0.00,weatherlink.com 1.10,2013-01-16 19:38:00,
2013-01-16 13:53:00,32.9,31.0,30.16,South,185,0.0,1.0,92,0.00,,,0.00,weatherlink.com 1.10,2013-01-16 19:53:00,
2013-01-16 14:08:00,32.9,31.0,30.16,WNW,295,0.0,1.0,91,0.00,,,0.00,weatherlink.com 1.10,2013-01-16 20:08:00,
2013-01-16 14:23:00,33.0,31.0,30.15,NW,314,0.0,1.0,91,0.00,,,0.00,weatherlink.com 1.10,2013-01-16 20:23:00,
2013-01-16 14:38:00,33.0,31.0,30.14,NW,321,0.0,1.0,91,0.00,,,0.00,weatherlink.com 1.10,2013-01-16 20:38:00,
2013-01-16 14:53:00,33.2,31.0,30.16,NE,37,0.0,0.0,92,0.00,,,0.00,weatherlink.com 1.10,2013-01-16 20:53:00,
2013-01-16 15:08:00,33.1,31.0,30.16,NE,37,0.0,0.0,92,0.00,,,0.00,weatherlink.com 1.10,2013-01-16 21:08:00,
2013-01-16 15:23:00,33.0,31.0,30.16,NNE,25,0.0,0.0,92,0.00,,,0.00,weatherlink.com 1.10,2013-01-16 21:23:00,
2013-01-16 15:38:00,33.0,31.0,30.16,WNW,285,0.0,0.0,92,0.00,,,0.00,weatherlink.com 1.10,2013-01-16 21:38:00,
2013-01-16 15:53:00,33.1,31.0,30.16,North,9,0.0,0.0,92,0.00,,,0.00,weatherlink.com 1.10,2013-01-16 21:53:00,
2013-01-16 16:08:00,33.0,31.0,30.16,NNE,26,0.0,2.0,92,0.00,,,0.00,weatherlink.com 1.10,2013-01-16 22:08:00,
2013-01-16 16:23:00,33.0,31.0,30.17,NNE,18,0.0,0.0,92,0.00,,,0.00,weatherlink.com 1.10,2013-01-16 22:23:00,
2013-01-16 16:38:00,32.9,31.0,30.16,ENE,65,0.0,1.0,92,0.00,,,0.00,weatherlink.com 1.10,2013-01-16 22:38:00,
2013-01-16 16:53:00,32.8,31.0,30.16,East,83,0.0,0.0,92,0.00,,,0.00,weatherlink.com 1.10,2013-01-16 22:53:00,
2013-01-16 17:08:00,32.7,31.0,30.16,NW,304,0.0,0.0,92,0.00,,,0.00,weatherlink.com 1.10,2013-01-16 23:08:00,
2013-01-16 17:23:00,32.4,30.0,30.17,NE,34,0.0,0.0,92,0.00,,,0.00,weatherlink.com 1.10,2013-01-16 23:23:00,
2013-01-16 17:38:00,32.3,30.0,30.16,ENE,59,0.0,0.0,92,0.00,,,0.00,weatherlink.com 1.10,2013-01-16 23:38:00,
2013-01-16 17:53:00,32.1,30.0,30.17,ENE,58,0.0,0.0,93,0.00,,,0.00,weatherlink.com 1.10,2013-01-16 23:53:00,
2013-01-16 18:08:00,32.1,30.0,30.18,North,4,0.0,0.0,93,0.00,,,0.00,weatherlink.com 1.10,2013-01-17 00:08:00,
2013-01-16 18:23:00,32.0,30.0,30.18,North,4,0.0,0.0,93,0.00,,,0.00,weatherlink.com 1.10,2013-01-17 00:23:00,
2013-01-16 18:38:00,31.9,30.0,30.19,NW,318,0.0,1.0,93,0.00,,,0.00,weatherlink.com 1.10,2013-01-17 00:38:00,
2013-01-16 18:53:00,31.8,30.0,30.18,NW,318,0.0,0.0,93,0.00,,,0.00,weatherlink.com 1.10,2013-01-17 00:53:00,
2013-01-16 19:08:00,31.8,30.0,30.19,NW,318,0.0,0.0,93,0.00,,,0.00,weatherlink.com 1.10,2013-01-17 01:08:00,
2013-01-16 19:23:00,31.8,30.0,30.19,NW,317,0.0,0.0,93,0.00,,,0.00,weatherlink.com 1.10,2013-01-17 01:23:00,
2013-01-16 19:38:00,32.0,30.0,30.19,NNW,342,0.0,0.0,93,0.00,,,0.00,weatherlink.com 1.10,2013-01-17 01:38:00,
2013-01-16 19:53:00,32.1,30.0,30.19,NNW,342,0.0,0.0,93,0.00,,,0.00,weatherlink.com 1.10,2013-01-17 01:53:00,
2013-01-16 20:08:00,32.2,30.0,30.20,East,86,0.0,0.0,93,0.00,,,0.00,weatherlink.com 1.10,2013-01-17 02:08:00,
2013-01-16 20:24:00,32.3,31.0,30.20,East,85,0.0,0.0,93,0.00,,,0.00,weatherlink.com 1.10,2013-01-17 02:24:00,
2013-01-16 20:38:00,32.4,31.0,30.20,East,85,0.0,0.0,93,0.00,,,0.00,weatherlink.com 1.10,2013-01-17 02:38:00,
2013-01-16 20:53:00,32.4,31.0,30.20,East,84,0.0,0.0,93,0.00,,,0.00,weatherlink.com 1.10,2013-01-17 02:53:00,
2013-01-16 21:08:00,32.4,31.0,30.21,NNE,15,0.0,0.0,93,0.00,,,0.00,weatherlink.com 1.10,2013-01-17 03:08:00,
2013-01-16 21:23:00,32.5,31.0,30.20,NNE,15,0.0,0.0,93,0.00,,,0.00,weatherlink.com 1.10,2013-01-17 03:23:00,
2013-01-16 21:38:00,32.5,31.0,30.19,NNE,15,0.0,0.0,93,0.00,,,0.00,weatherlink.com 1.10,2013-01-17 03:38:00,
2013-01-16 21:54:00,32.6,31.0,30.20,NNE,15,0.0,0.0,93,0.00,,,0.00,weatherlink.com 1.10,2013-01-17 03:54:00,
2013-01-16 22:09:00,32.7,31.0,30.20,NNE,15,0.0,0.0,93,0.00,,,0.00,weatherlink.com 1.10,2013-01-17 04:09:00,
2013-01-16 22:24:00,32.8,31.0,30.20,NW,312,0.0,0.0,93,0.00,,,0.00,weatherlink.com 1.10,2013-01-17 04:24:00,
2013-01-16 22:39:00,32.8,31.0,30.19,NW,311,0.0,0.0,93,0.00,,,0.00,weatherlink.com 1.10,2013-01-17 04:39:00,
2013-01-16 22:54:00,32.8,31.0,30.18,NW,308,0.0,1.0,93,0.00,,,0.00,weatherlink.com 1.10,2013-01-17 04:54:00,
2013-01-16 23:09:00,32.7,31.0,30.18,NW,316,0.0,2.0,93,0.00,,,0.00,weatherlink.com 1.10,2013-01-17 05:09:00,
2013-01-16 23:24:00,32.7,31.0,30.18,West,271,0.0,1.0,93,0.00,,,0.00,weatherlink.com 1.10,2013-01-17 05:24:00,
2013-01-16 23:39:00,32.7,31.0,30.18,West,271,0.0,1.0,93,0.00,,,0.00,weatherlink.com 1.10,2013-01-17 05:39:00,
2013-01-16 23:54:00,32.7,31.0,30.18,West,271,0.0,0.0,93,0.00,,,0.00,weatherlink.com 1.10,2013-01-17 05:54:00,